Lid_Strength_Index
17 17 17 17 17 17 17 16 16 15 15 15 15 15 15 15 14 14 13 13 13 13 13 14 14 13 14 14 14 14 15 15 16 15 14 14 14 14 14 14 14 14 13
17 17 17 17 17 17 17 17 16 15 15 15 15 15 15 15 14 14 14 14 14 14 14 15 16 14 15 15 15 15 15 15 16 17 16 15 15 15 15 16 15 14 14
17 17 18 17 18 18 17 17 16 16 15 15 14 15 14 14 14 14 14 14 14 14 15 16 16 15 15 15 15 16 16 16 16 16 16 16 16 16 17 16 16 15 14
17 18 18 18 17 17 17 17 16 16 15 15 15 14 14 14 14 14 14 14 14 15 14 15 16 15 15 15 15 16 16 16 16 16 17 17 17 16 17 18 18 17 17
18 18 18 17 17 17 17 16 16 16 16 15 14 14 13 14 14 14 15 15 15 16 15 15 16 15 14 14 15 16 16 16 17 17 18 18 18 19 19 18 19 19 18
18 18 18 17 17 17 17 17 16 16 16 15 14 14 14 13 13 14 14 16 16 16 17 16 16 16 15 14 15 15 15 17 17 19 19 19 19 19 18 19 20 20 22
18 18 17 17 17 17 16 16 16 16 15 15 15 14 14 14 13 14 14 16 16 17 17 17 17 17 16 16 17 16 17 16 17 19 20 20 20 18 18 19 19 20 20
18 18 18 17 17 16 16 16 16 16 16 16 16 15 15 15 14 15 15 16 18 17 18 17 17 17 16 16 18 19 19 18 19 18 19 18 17 17 17 18 19 20 20
18 18 18 17 17 17 16 16 16 15 15 15 16 16 16 15 14 15 16 17 18 17 18 18 17 17 16 15 19 19 20 19 18 17 17 16 16 16 16 19 23 23 24
18 18 17 17 17 16 16 16 14 15 15 15 16 17 17 17 15 15 17 17 19 19 19 19 17 17 16 15 18 19 23 22 22 23 22 20 19 19 17 19 20 23 23
18 18 18 17 16 16 16 15 15 15 16 18 18 18 18 18 16 15 15 17 19 21 21 20 18 16 16 16 17 19 20 22 23 24 24 23 22 21 20 19 19 19 22
18 17 17 17 16 15 15 15 16 16 18 19 20 20 20 18 16 16 16 16 18 20 20 19 18 17 18 17 18 17 19 23 25 26 27 25 24 23 21 20 19 18 18
18 19 17 17 16 16 16 17 17 18 19 20 20 21 21 20 19 17 16 16 17 20 19 18 18 19 19 22 19 19 23 26 27 29 28 26 24 22 21 21 20 20 19
18 18 18 18 18 17 18 18 18 20 21 21 22 22 22 19 19 18 18 19 19 23 23 24 21 21 21 23 25 25 25 27 28 29 28 26 24 24 24 23 24 23 24
18 19 19 19 19 20 19 20 20 20 20 22 23 22 25 26 22 18 20 23 23 24 33 33 32 29 29 28 29 29 27 28 29 29 29 28 27 26 26 25 25 25 26
20 20 20 20 21 21 22 22 18 18 16 16 17 21 24 18 16 16 16 18 18 20 36 38 36 36 33 33 33 32 31 30 30 30 30 30 29 29 28 27 26 26 26
20 20 21 22 23 23 23 23 24 23 16 16 16 16 17 17 17 17 17 19 19 26 39 41 38 38 37 35 35 35 34 31 35 33 32 32 31 31 30 29 27 27 26
21 22 22 24 25 27 26 27 28 28 29 30 24 21 19 18 18 18 18 25 36 36 42 40 39 39 39 38 37 37 36 34 35 34 34 36 36 35 32 30 29 29 27
23 26 28 30 30 29 31 32 33 35 36 36 36 27 30 20 19 20 21 37 38 40 42 42 42 41 40 40 39 40 41 38 37 39 39 40 36 39 33 31 30 28 27
29 29 30 31 33 33 32 33 35 36 37 37 38 36 38 35 34 37 41 42 42 41 42 41 40 42 41 41 40 42 41 40 38 39 37 38 36 39 33 32 30 30 28
30 31 31 34 32 33 33 32 32 34 35 36 35 36 26 33 35 37 39 42 39 39 39 39 39 40 40 41 44 43 43 36 38 38 37 37 39 37 35 31 31 29 28
29 31 33 32 35 35 35 34 34 34 36 36 37 37 21 35 37 37 38 37 36 36 36 37 37 37 36 37 37 39 38 35 35 37 37 36 36 35 34 33 31 29 28
31 33 35 40 35 36 36 38 37 37 37 36 37 36 37 37 36 35 34 34 36 36 37 39 37 35 36 36 37 35 35 33 31 35 33 32 33 32 34 33 30 29 28
32 32 32 35 36 35 34 36 37 36 36 36 38 37 35 34 35 33 33 34 35 36 37 37 36 34 34 35 36 37 36 33 35 33 33 32 31 29 32 33 29 28 27
32 33 33 32 33 33 35 36 35 36 36 35 34 34 34 33 33 33 33 34 34 35 34 34 34 33 32 32 33 34 34 27 28 30 32 32 30 29 29 29 28 26 26
32 32 32 34 34 35 35 34 34 34 34 33 33 33 32 32 31 32 32 33 33 33 33 33 32 32 32 31 32 30 28 24 25 26 27 27 26 26 29 29 26 25 25